Wind_Speed
59 59 59 58 58 57 57 58 58 57 56 55 56 56 57 57 57 57 58 57 57 56 56 55 55 55 54 53 52 52 52 52 52 51 50 49 48 47
57 58 58 57 57 57 57 57 57 57 55 53 54 55 57 58 57 57 57 57 56 56 55 55 54 55 54 53 53 53 53 53 53 52 51 50 49 48
56 57 57 57 57 56 57 57 57 58 56 53 53 54 56 57 57 56 55 56 55 55 54 54 54 54 53 53 53 53 53 53 53 51 50 50 49 48
55 55 56 57 56 57 57 57 57 57 57 55 53 54 55 56 56 55 54 54 53 52 52 52 52 52 52 53 52 52 52 52 52 50 50 50 48 47
54 54 55 56 56 57 57 56 57 57 57 56 54 53 54 55 55 54 52 51 51 51 52 51 51 50 52 52 51 52 52 52 51 50 49 49 48 47
53 54 55 57 57 57 56 56 56 55 55 55 53 52 53 53 54 53 52 51 51 51 51 51 50 50 51 51 50 51 50 50 50 50 49 48 47 46
52 53 54 55 56 57 56 55 54 53 53 53 53 52 51 51 51 52 52 51 50 48 48 49 49 49 47 47 48 47 48 49 49 49 48 46 45 45
50 51 52 53 54 55 54 53 52 52 52 52 51 50 49 49 49 49 49 49 48 46 46 45 46 45 44 45 46 46 47 48 48 46 45 44 44 43
48 49 49 50 51 52 52 52 50 51 51 49 48 47 46 46 47 47 47 47 46 45 46 44 43 43 42 43 44 44 44 44 44 43 43 42 42 41
46 46 46 47 47 48 49 48 48 47 46 46 45 45 44 43 43 44 45 44 44 43 43 42 41 41 41 41 42 42 41 40 40 41 41 41 40 39
43 44 44 43 43 44 44 45 44 43 42 42 42 41 41 41 41 40 41 42 41 41 40 39 38 39 40 39 39 39 39 38 38 38 38 38 37 37
41 41 41 40 40 39 40 40 39 38 39 40 40 39 39 38 39 39 39 39 38 37 37 37 37 38 37 35 36 36 36 36 36 36 36 35 35 35
38 38 37 37 36 36 36 36 36 36 36 37 37 37 37 37 37 37 37 35 34 34 34 35 34 33 33 32 33 33 34 34 34 34 34 34 34 34
36 35 35 34 34 34 34 34 34 34 34 34 34 34 34 34 33 34 34 34 33 32 32 32 31 31 31 30 31 32 32 32 32 33 33 33 32 31
33 33 32 32 32 32 32 33 33 33 32 32 31 31 31 30 30 31 32 32 32 32 32 31 31 31 31 30 30 31 31 30 30 31 31 30 29 29
31 31 31 31 30 31 32 32 31 31 30 30 29 29 29 29 29 29 30 30 30 30 31 31 31 31 31 31 31 30 30 30 30 30 28 27 27 26
30 29 29 29 31 31 31 31 30 29 28 28 28 27 27 27 27 27 28 28 28 28 29 30 30 30 30 30 29 29 29 29 28 28 27 26 25 25
29 28 28 29 29 29 29 28 28 27 27 26 26 25 24 24 25 26 26 26 26 27 27 27 27 27 27 27 27 28 28 27 26 25 25 24 23 23
26 25 26 26 26 25 25 25 25 25 25 25 25 24 24 24 24 24 25 26 26 25 25 25 25 25 26 25 25 25 25 25 24 23 23 22 21 20
23 22 22 22 23 23 23 23 23 23 23 23 23 24 24 23 24 24 24 23 23 23 23 24 24 24 25 24 23 22 21 21 21 20 20 19 19 18
20 20 20 20 21 21 21 21 21 21 21 21 22 23 23 23 23 22 22 22 21 21 21 21 22 23 22 21 19 19 19 20 19 19 18 18 17 16
20 20 20 20 20 20 20 20 20 20 20 20 21 21 21 20 20 20 20 20 20 20 19 20 21 21 20 19 18 18 18 18 17 17 16 15 14 13
19 19 19 18 19 19 20 20 20 20 20 19 19 19 20 19 19 19 19 18 18 18 19 19 19 18 18 17 17 17 17 16 15 15 14 14 13 12
Wind_Direction
270 268 268 268 268 268 269 270 270 269 267 266 265 264 264 264 265 266 266 266 267 267 267 267 266 266 267 269 271 271 272 273 274 275 276 277 278 279
270 269 267 267 268 268 268 269 270 270 269 267 266 264 264 264 265 265 266 266 267 266 266 267 266 266 266 267 270 271 272 272 273 274 275 276 277 278
271 270 268 267 267 267 269 270 270 270 270 268 267 266 265 264 265 265 266 266 266 265 265 266 265 265 265 266 268 269 270 271 272 274 274 275 277 278
271 270 269 268 268 268 270 270 270 270 270 269 267 267 266 266 265 265 266 265 265 264 265 266 266 266 266 266 266 268 270 271 272 274 274 275 277 278
272 271 270 269 268 268 269 270 270 270 270 270 269 268 268 266 265 265 265 265 264 264 265 265 266 265 264 264 266 268 270 271 271 273 273 274 276 276
273 272 271 269 268 268 268 269 270 270 269 269 269 268 267 266 265 263 263 264 263 263 264 264 265 265 263 263 265 267 269 270 271 272 273 274 274 275
274 274 272 270 268 267 267 268 269 269 269 269 269 268 267 266 264 262 262 264 262 263 264 262 263 265 264 264 265 267 268 269 271 273 273 272 272 274
275 274 273 271 269 268 267 267 268 268 269 269 269 267 266 265 264 262 262 263 261 262 263 262 262 263 265 264 265 267 268 268 269 270 271 271 272 273
276 275 273 272 271 268 267 266 267 268 268 267 267 267 265 264 263 262 261 262 261 260 261 262 262 262 264 266 266 267 267 267 266 269 270 272 273 273
277 275 274 272 270 269 267 265 266 267 267 267 267 266 265 264 262 260 259 260 259 260 262 262 261 261 263 264 265 265 265 266 267 268 270 272 275 275
277 276 274 273 270 269 268 266 265 265 265 265 264 264 263 263 262 261 259 259 258 258 259 261 260 261 263 263 261 261 263 265 268 269 271 274 275 275
278 276 274 273 270 268 267 265 264 263 263 263 263 262 261 262 262 262 260 258 257 256 256 257 259 261 262 260 259 261 264 267 270 271 274 275 275 275
277 274 272 270 268 266 266 265 264 263 263 262 262 262 261 261 261 261 259 257 256 255 255 256 258 261 262 261 259 262 264 267 270 272 275 275 275 277
278 275 272 268 266 265 265 265 265 265 264 263 262 262 261 260 259 258 256 254 255 254 254 257 257 259 261 261 261 260 263 267 269 271 274 273 275 276
278 275 271 266 264 262 263 264 264 265 265 262 261 260 259 257 257 256 254 254 255 255 256 257 256 257 260 261 262 262 264 267 271 273 272 272 274 275
277 273 270 266 265 262 261 263 264 264 263 261 259 261 258 256 255 254 253 255 254 253 254 254 255 257 258 259 262 262 264 268 269 270 270 271 272 274
273 270 267 265 264 262 261 262 262 262 261 259 259 259 255 255 254 253 254 254 252 252 252 254 255 257 259 259 260 261 265 266 266 266 267 269 271 273
275 271 267 265 263 261 259 259 260 261 260 259 257 254 253 253 253 252 251 250 251 252 252 253 254 256 259 261 261 263 264 262 264 265 267 268 268 270
275 272 268 263 259 258 258 259 259 259 260 259 256 252 254 254 250 247 247 248 249 250 251 253 253 255 258 260 262 262 262 261 263 264 266 267 266 268
274 271 267 262 259 259 259 259 258 258 258 255 252 251 252 250 247 247 247 247 249 250 250 251 252 255 258 260 259 259 260 260 261 263 266 265 266 268
272 268 265 263 260 259 259 258 257 256 255 253 250 250 250 249 248 247 246 246 248 248 249 250 253 256 258 258 256 256 258 261 263 264 264 263 264 265
267 265 262 260 258 257 257 257 256 256 255 254 250 248 246 244 244 243 243 245 247 248 249 251 254 257 256 255 255 255 257 259 262 263 264 264 263 262
266 265 264 263 259 257 257 256 255 255 253 252 249 245 243 242 243 243 244 245 246 247 249 252 253 253 253 253 253 255 256 257 259 260 258 259 260 260
Height
5614 5615 5616 5617 5617 5618 5618 5619 5620 5623 5629 5631 5631 5630 5630 5631 5632 5633 5635 5637 5638 5639 5641 5643 5644 5645 5647 5648 5649 5650 5650 5650 5651 5651 5650 5650 5649 5648
5598 5599 5600 5601 5602 5602 5603 5604 5604 5605 5610 5614 5614 5614 5613 5615 5616 5617 5619 5620 5622 5623 5625 5626 5628 5630 5632 5634 5635 5636 5636 5636 5636 5637 5637 5636 5635 5634
5583 5584 5585 5586 5586 5587 5587 5588 5589 5589 5591 5597 5597 5597 5597 5598 5600 5601 5603 5604 5606 5607 5609 5610 5612 5614 5616 5618 5620 5621 5622 5622 5622 5623 5623 5622 5621 5621
5568 5568 5569 5570 5571 5571 5572 5572 5573 5573 5574 5579 5581 5581 5581 5582 5583 5585 5587 5588 5590 5592 5593 5595 5597 5599 5601 5603 5605 5606 5607 5607 5608 5608 5609 5609 5608 5607
5553 5553 5553 5554 5555 5555 5556 5556 5557 5557 5558 5560 5564 5565 5566 5566 5567 5569 5571 5572 5574 5576 5579 5581 5583 5584 5586 5588 5590 5591 5592 5593 5594 5594 5594 5594 5594 5594
5538 5538 5538 5538 5539 5539 5540 5541 5541 5541 5542 5544 5547 5549 5550 5551 5551 5554 5556 5558 5560 5562 5564 5566 5568 5570 5572 5573 5575 5576 5577 5578 5579 5579 5580 5580 5580 5580
5523 5523 5522 5522 5523 5523 5524 5525 5525 5526 5527 5528 5530 5533 5535 5536 5537 5538 5540 5543 5545 5547 5549 5552 5554 5556 5557 5559 5560 5561 5563 5564 5564 5565 5565 5566 5566 5566
5509 5508 5508 5508 5508 5508 5509 5510 5510 5511 5512 5513 5515 5517 5520 5521 5522 5523 5525 5527 5531 5535 5535 5539 5540 5542 5544 5545 5546 5548 5549 5550 5551 5551 5552 5552 5553 5553
5494 5494 5493 5493 5493 5493 5494 5495 5496 5496 5497 5498 5500 5503 5505 5507 5507 5509 5511 5513 5517 5520 5522 5525 5527 5529 5531 5532 5533 5535 5536 5537 5538 5538 5539 5540 5540 5540
5480 5480 5479 5479 5479 5479 5480 5481 5482 5483 5484 5484 5487 5489 5491 5493 5494 5495 5498 5500 5504 5507 5509 5512 5515 5517 5519 5520 5521 5522 5524 5525 5526 5527 5527 5528 5528 5529
5467 5466 5466 5466 5466 5466 5466 5468 5470 5472 5472 5473 5475 5476 5478 5480 5481 5483 5485 5488 5492 5495 5497 5500 5503 5505 5507 5509 5510 5511 5513 5514 5515 5516 5516 5517 5517 5517
5456 5455 5454 5454 5454 5454 5454 5456 5458 5460 5461 5462 5464 5465 5467 5469 5470 5472 5474 5477 5480 5484 5487 5489 5491 5493 5496 5499 5500 5501 5502 5504 5504 5505 5506 5507 5507 5507
5445 5445 5444 5443 5443 5444 5444 5446 5447 5449 5450 5452 5453 5455 5457 5459 5461 5462 5464 5467 5469 5473 5477 5479 5481 5483 5485 5489 5491 5492 5493 5494 5495 5496 5496 5497 5497 5497
5434 5434 5434 5434 5434 5434 5435 5436 5437 5438 5440 5442 5443 5446 5447 5449 5451 5453 5455 5457 5460 5463 5466 5468 5471 5474 5477 5479 5482 5483 5484 5485 5486 5487 5487 5487 5487 5488
5424 5424 5424 5424 5424 5425 5427 5427 5428 5429 5431 5432 5434 5437 5438 5440 5442 5444 5446 5448 5451 5453 5456 5459 5462 5465 5468 5470 5473 5474 5476 5477 5477 5478 5478 5478 5479 5479
5415 5415 5415 5416 5416 5416 5418 5419 5419 5421 5422 5424 5426 5428 5429 5431 5433 5435 5438 5440 5442 5445 5447 5450 5453 5456 5459 5462 5464 5466 5467 5468 5469 5469 5469 5470 5471 5471
5407 5407 5407 5407 5408 5408 5409 5410 5411 5413 5414 5416 5418 5419 5421 5423 5425 5428 5430 5432 5435 5438 5441 5443 5445 5448 5451 5454 5456 5458 5459 5460 5460 5461 5462 5463 5464 5464
5398 5398 5399 5399 5399 5400 5401 5403 5404 5405 5407 5408 5410 5412 5414 5416 5418 5420 5423 5425 5428 5431 5434 5436 5438 5441 5444 5446 5448 5449 5450 5451 5453 5454 5455 5455 5456 5456
5391 5391 5391 5391 5392 5393 5394 5396 5397 5398 5400 5401 5403 5405 5408 5409 5411 5414 5416 5419 5421 5424 5427 5429 5431 5434 5436 5439 5440 5441 5442 5444 5445 5447 5448 5449 5449 5450
5383 5383 5383 5384 5385 5386 5387 5389 5391 5392 5394 5395 5397 5399 5401 5403 5406 5408 5411 5413 5416 5418 5420 5423 5425 5427 5429 5432 5433 5435 5436 5437 5438 5440 5440 5441 5442 5443
5377 5377 5377 5378 5379 5380 5381 5383 5384 5386 5388 5389 5391 5393 5395 5398 5400 5403 5405 5408 5410 5412 5415 5417 5419 5421 5423 5425 5427 5429 5430 5431 5432 5433 5434 5435 5436 5437
5371 5371 5372 5372 5373 5374 5376 5377 5379 5380 5382 5383 5385 5387 5390 5392 5395 5398 5400 5403 5405 5407 5409 5411 5413 5415 5417 5420 5421 5423 5424 5425 5426 5427 5428 5430 5431 5432
5366 5366 5366 5366 5367 5368 5370 5371 5373 5374 5376 5378 5380 5382 5385 5387 5390 5393 5395 5397 5399 5402 5404 5406 5408 5410 5412 5414 5416 5417 5419 5420 5421 5422 5423 5425 5426 5428